Year,Month,Day,Hour,Minute,Value (Times are PST for temperature in C)
2018,07,26,00,00,18.70
2018,07,26,00,01,18.70
2018,07,26,00,02,18.60
2018,07,26,00,03,18.60
2018,07,26,00,04,18.60
2018,07,26,00,05,18.60
2018,07,26,00,06,18.50
2018,07,26,00,07,18.50
2018,07,26,00,08,18.50
2018,07,26,00,09,18.50
2018,07,26,00,10,18.40
2018,07,26,00,11,18.40
2018,07,26,00,12,18.40
2018,07,26,00,13,18.40
2018,07,26,00,14,18.40
2018,07,26,00,15,18.30
2018,07,26,00,16,18.30
2018,07,26,00,17,18.30
2018,07,26,00,18,18.30
2018,07,26,00,19,18.20
2018,07,26,00,20,18.20
2018,07,26,00,21,18.20
2018,07,26,00,22,18.20
2018,07,26,00,23,18.20
2018,07,26,00,24,18.20
2018,07,26,00,25,18.10
2018,07,26,00,26,18.10
2018,07,26,00,27,18.10
2018,07,26,00,28,18.10
2018,07,26,00,29,18.10
2018,07,26,00,30,18.10
2018,07,26,00,31,18.10
2018,07,26,00,32,18.10
2018,07,26,00,33,18.10
2018,07,26,00,34,18.10
2018,07,26,00,35,18.10
2018,07,26,00,36,18.10
2018,07,26,00,37,18.20
2018,07,26,00,38,18.20
2018,07,26,00,39,18.20
2018,07,26,00,40,18.20
2018,07,26,00,41,18.20
2018,07,26,00,42,18.30
2018,07,26,00,43,18.30
2018,07,26,00,44,18.30
2018,07,26,00,45,18.30
2018,07,26,00,46,18.30
2018,07,26,00,47,18.30
2018,07,26,00,48,18.30
2018,07,26,00,49,18.30
2018,07,26,00,50,18.30
2018,07,26,00,51,18.30
2018,07,26,00,52,18.30
2018,07,26,00,53,18.30
2018,07,26,00,54,18.30
2018,07,26,00,55,18.30
2018,07,26,00,56,18.30
2018,07,26,00,57,18.30
2018,07,26,00,58,18.20
2018,07,26,00,59,18.20
2018,07,26,01,00,18.20
2018,07,26,01,01,18.20
2018,07,26,01,02,18.20
2018,07,26,01,03,18.20
2018,07,26,01,04,18.20
2018,07,26,01,05,18.20
2018,07,26,01,06,18.20
2018,07,26,01,07,18.20
2018,07,26,01,08,18.20
2018,07,26,01,09,18.20
2018,07,26,01,10,18.20
2018,07,26,01,11,18.30
2018,07,26,01,12,18.30
2018,07,26,01,13,18.30
2018,07,26,01,14,18.30
2018,07,26,01,15,18.30
2018,07,26,01,16,18.30
2018,07,26,01,17,18.30
2018,07,26,01,18,18.30
2018,07,26,01,19,18.30
2018,07,26,01,20,18.20
2018,07,26,01,21,18.20
2018,07,26,01,22,18.20
2018,07,26,01,23,18.20
2018,07,26,01,24,18.20
2018,07,26,01,25,18.20
2018,07,26,01,26,18.20
2018,07,26,01,27,18.20
2018,07,26,01,28,18.20
2018,07,26,01,29,18.20
2018,07,26,01,30,18.20
2018,07,26,01,31,18.10
2018,07,26,01,32,18.10
2018,07,26,01,33,18.10
2018,07,26,01,34,18.10
2018,07,26,01,35,18.10
2018,07,26,01,36,18.10
2018,07,26,01,37,18.10
2018,07,26,01,38,18.10
2018,07,26,01,39,18.10
2018,07,26,01,40,18.10
2018,07,26,01,41,18.10
2018,07,26,01,42,18.10
2018,07,26,01,43,18.10
2018,07,26,01,44,18.10
2018,07,26,01,45,18.10
2018,07,26,01,46,18.10
2018,07,26,01,47,18.10
2018,07,26,01,48,18.10
2018,07,26,01,49,18.10
2018,07,26,01,50,18.10
2018,07,26,01,51,18.00
2018,07,26,01,52,18.00
2018,07,26,01,53,18.00
2018,07,26,01,54,18.00
2018,07,26,01,55,17.90
2018,07,26,01,56,17.90
2018,07,26,01,57,17.90
2018,07,26,01,58,17.80
2018,07,26,01,59,17.80
2018,07,26,02,00,17.80
2018,07,26,02,01,17.80
2018,07,26,02,02,17.80
2018,07,26,02,03,17.80
2018,07,26,02,04,17.70
2018,07,26,02,05,17.70
2018,07,26,02,06,17.70
2018,07,26,02,07,17.70
2018,07,26,02,08,17.70
2018,07,26,02,09,17.70
2018,07,26,02,10,17.70
2018,07,26,02,11,17.70
2018,07,26,02,12,17.70
2018,07,26,02,13,17.70
2018,07,26,02,14,17.80
2018,07,26,02,15,17.80
2018,07,26,02,16,17.70
2018,07,26,02,17,17.70
2018,07,26,02,18,17.70
2018,07,26,02,19,17.70
2018,07,26,02,20,17.70
2018,07,26,02,21,17.70
2018,07,26,02,22,17.60
2018,07,26,02,23,17.60
2018,07,26,02,24,17.50
2018,07,26,02,25,17.50
2018,07,26,02,26,17.40
2018,07,26,02,27,17.40
2018,07,26,02,28,17.40
2018,07,26,02,29,17.40
2018,07,26,02,30,17.30
2018,07,26,02,31,17.30
2018,07,26,02,32,17.30
2018,07,26,02,33,17.30
2018,07,26,02,34,17.30
2018,07,26,02,35,17.30
2018,07,26,02,36,17.30
2018,07,26,02,37,17.30
2018,07,26,02,38,17.30
2018,07,26,02,39,17.30
2018,07,26,02,40,17.20
2018,07,26,02,41,17.30
2018,07,26,02,42,17.30
2018,07,26,02,43,17.30
2018,07,26,02,44,17.30
2018,07,26,02,45,17.30
2018,07,26,02,46,17.30
2018,07,26,02,47,17.20
2018,07,26,02,48,17.20
2018,07,26,02,49,17.20
2018,07,26,02,50,17.20
2018,07,26,02,51,17.10
2018,07,26,02,52,17.10
2018,07,26,02,53,17.10
2018,07,26,02,54,17.00
2018,07,26,02,55,17.00
2018,07,26,02,56,17.00
2018,07,26,02,57,17.00
2018,07,26,02,58,17.00
2018,07,26,02,59,16.90
2018,07,26,03,00,16.90
2018,07,26,03,01,16.90
2018,07,26,03,02,16.90
2018,07,26,03,03,16.90
2018,07,26,03,04,16.90
2018,07,26,03,05,16.90
2018,07,26,03,06,16.90
2018,07,26,03,07,17.00
2018,07,26,03,08,17.00
2018,07,26,03,09,17.10
2018,07,26,03,10,17.10
2018,07,26,03,11,17.10
2018,07,26,03,12,17.10
2018,07,26,03,13,17.10
2018,07,26,03,14,17.10
2018,07,26,03,15,17.10
2018,07,26,03,16,17.10
2018,07,26,03,17,17.00
2018,07,26,03,18,17.00
2018,07,26,03,19,17.00
2018,07,26,03,20,17.00
2018,07,26,03,21,16.90
2018,07,26,03,22,16.90
2018,07,26,03,23,16.90
2018,07,26,03,24,16.90
2018,07,26,03,25,16.90
2018,07,26,03,26,16.90
2018,07,26,03,27,16.80
2018,07,26,03,28,16.80
2018,07,26,03,29,16.80
2018,07,26,03,30,16.80
2018,07,26,03,31,16.80
2018,07,26,03,32,16.70
2018,07,26,03,33,16.70
2018,07,26,03,34,16.70
2018,07,26,03,35,16.70
2018,07,26,03,36,16.60
2018,07,26,03,37,16.60
2018,07,26,03,38,16.60
2018,07,26,03,39,16.60
2018,07,26,03,40,16.50
2018,07,26,03,41,16.50
2018,07,26,03,42,16.40
2018,07,26,03,43,16.40
2018,07,26,03,44,16.40
2018,07,26,03,45,16.40
2018,07,26,03,46,16.40
2018,07,26,03,47,16.40
2018,07,26,03,48,16.40
2018,07,26,03,49,16.40
2018,07,26,03,50,16.40
2018,07,26,03,51,16.40
2018,07,26,03,52,16.50
2018,07,26,03,53,16.50
2018,07,26,03,54,16.50
2018,07,26,03,55,16.50
2018,07,26,03,56,16.50
2018,07,26,03,57,16.50
2018,07,26,03,58,16.50
2018,07,26,03,59,16.50
2018,07,26,04,00,16.60
2018,07,26,04,01,16.50
2018,07,26,04,02,16.50
2018,07,26,04,03,16.50
2018,07,26,04,04,16.50
2018,07,26,04,08,16.50
2018,07,26,04,09,16.50
2018,07,26,04,10,16.40
2018,07,26,04,11,16.40
2018,07,26,04,12,16.40
2018,07,26,04,13,16.40
2018,07,26,04,14,16.40
2018,07,26,04,15,16.40
2018,07,26,04,16,16.40
2018,07,26,04,17,16.40
2018,07,26,04,18,16.30
2018,07,26,04,19,16.30
2018,07,26,04,20,16.30
2018,07,26,04,21,16.30
2018,07,26,04,22,16.30
2018,07,26,04,23,16.30
2018,07,26,04,24,16.20
2018,07,26,04,25,16.20
2018,07,26,04,26,16.20
2018,07,26,04,27,16.10
2018,07,26,04,28,16.10
2018,07,26,04,29,16.10
2018,07,26,04,30,16.00
2018,07,26,04,31,16.00
2018,07,26,04,32,15.90
2018,07,26,04,33,15.90
2018,07,26,04,34,15.90
2018,07,26,04,35,15.90
2018,07,26,04,36,15.80
2018,07,26,04,37,15.80
2018,07,26,04,38,15.80
2018,07,26,04,39,15.80
2018,07,26,04,40,15.70
2018,07,26,04,41,15.70
2018,07,26,04,42,15.70
2018,07,26,04,43,15.70
2018,07,26,04,44,15.70
2018,07,26,04,45,15.70
2018,07,26,04,46,15.70
2018,07,26,04,47,15.70
2018,07,26,04,48,15.60
2018,07,26,04,49,15.60
2018,07,26,04,50,15.60
2018,07,26,04,51,15.60
2018,07,26,04,52,15.50
2018,07,26,04,53,15.50
2018,07,26,04,54,15.40
2018,07,26,04,55,15.40
2018,07,26,04,56,15.40
2018,07,26,04,57,15.40
2018,07,26,04,58,15.40
2018,07,26,04,59,15.40
2018,07,26,05,00,15.40
2018,07,26,05,01,15.40
2018,07,26,05,02,15.40
2018,07,26,05,03,15.40
2018,07,26,05,04,15.40
2018,07,26,05,05,15.40
2018,07,26,05,06,15.40
2018,07,26,05,07,15.30
2018,07,26,05,08,15.30
2018,07,26,05,09,15.30
2018,07,26,05,10,15.30
2018,07,26,05,11,15.20
2018,07,26,05,12,15.20
2018,07,26,05,13,15.20
2018,07,26,05,14,15.10
2018,07,26,05,15,15.10
2018,07,26,05,16,15.10
2018,07,26,05,17,15.00
2018,07,26,05,18,15.00
2018,07,26,05,19,15.00
2018,07,26,05,20,14.90
2018,07,26,05,21,14.90
2018,07,26,05,22,14.90
2018,07,26,05,23,14.90
2018,07,26,05,24,14.90
2018,07,26,05,25,14.80
2018,07,26,05,26,14.80
2018,07,26,05,27,14.80
2018,07,26,05,28,14.80
2018,07,26,05,29,14.80
2018,07,26,05,30,14.80
2018,07,26,05,31,14.80
2018,07,26,05,32,14.80
2018,07,26,05,33,14.70
2018,07,26,05,34,14.70
2018,07,26,05,35,14.70
2018,07,26,05,36,14.70
2018,07,26,05,37,14.70
2018,07,26,05,38,14.70
2018,07,26,05,39,14.60
2018,07,26,05,40,14.60
2018,07,26,05,41,14.60
2018,07,26,05,42,14.60
2018,07,26,05,43,14.60
2018,07,26,05,44,14.60
2018,07,26,05,45,14.50
2018,07,26,05,46,14.50
2018,07,26,05,47,14.50
2018,07,26,05,48,14.50
2018,07,26,05,49,14.50
2018,07,26,05,50,14.50
2018,07,26,05,51,14.50
2018,07,26,05,52,14.50
2018,07,26,05,53,14.50
2018,07,26,05,54,14.50
2018,07,26,05,55,14.50
2018,07,26,05,56,14.50
2018,07,26,05,57,14.50
2018,07,26,05,58,14.60
2018,07,26,05,59,14.60
2018,07,26,06,00,14.60
2018,07,26,06,01,14.60
2018,07,26,06,02,14.60
2018,07,26,06,03,14.60
2018,07,26,06,04,14.60
2018,07,26,06,05,14.60
2018,07,26,06,06,14.60
2018,07,26,06,07,14.60
2018,07,26,06,08,14.60
2018,07,26,06,09,14.60
2018,07,26,06,10,14.60
2018,07,26,06,11,14.60
2018,07,26,06,12,14.60
2018,07,26,06,13,14.60
2018,07,26,06,14,14.60
2018,07,26,06,15,14.60
2018,07,26,06,16,14.60
2018,07,26,06,17,14.60
2018,07,26,06,18,14.60
2018,07,26,06,19,14.60
2018,07,26,06,20,14.60
2018,07,26,06,21,14.60
2018,07,26,06,22,14.60
2018,07,26,06,23,14.70
2018,07,26,06,24,14.70
2018,07,26,06,25,14.70
2018,07,26,06,26,14.70
2018,07,26,06,27,14.70
2018,07,26,06,28,14.70
2018,07,26,06,29,14.80
2018,07,26,06,30,14.80
2018,07,26,06,31,14.80
2018,07,26,06,32,14.80
2018,07,26,06,33,14.90
2018,07,26,06,34,14.90
2018,07,26,06,35,14.90
2018,07,26,06,36,14.90
2018,07,26,06,37,15.00
2018,07,26,06,38,15.00
2018,07,26,06,39,15.10
2018,07,26,06,40,15.10
2018,07,26,06,41,15.20
2018,07,26,06,42,15.20
2018,07,26,06,43,15.20
2018,07,26,06,44,15.30
2018,07,26,06,45,15.30
2018,07,26,06,46,15.40
2018,07,26,06,47,15.40
2018,07,26,06,48,15.40
2018,07,26,06,49,15.50
2018,07,26,06,50,15.60
2018,07,26,06,51,15.60
2018,07,26,06,52,15.70
2018,07,26,06,53,15.70
2018,07,26,06,54,15.80
2018,07,26,06,55,15.80
2018,07,26,06,56,15.90
2018,07,26,06,57,15.90
2018,07,26,06,58,16.00
2018,07,26,06,59,16.10
2018,07,26,07,00,16.20
2018,07,26,07,01,16.30
2018,07,26,07,02,16.40
2018,07,26,07,03,16.50
2018,07,26,07,04,16.60
2018,07,26,07,05,16.80
2018,07,26,07,06,16.80
2018,07,26,07,07,16.90
2018,07,26,07,08,17.00
2018,07,26,07,09,17.10
2018,07,26,07,10,17.30
2018,07,26,07,11,17.40
2018,07,26,07,12,17.50
2018,07,26,07,13,17.70
2018,07,26,07,14,17.80
2018,07,26,07,15,17.90
2018,07,26,07,16,18.00
2018,07,26,07,17,18.20
2018,07,26,07,18,18.20
2018,07,26,07,19,18.30
2018,07,26,07,20,18.40
2018,07,26,07,21,18.50
2018,07,26,07,22,18.50
2018,07,26,07,23,18.60
2018,07,26,07,24,18.70
2018,07,26,07,25,18.70
2018,07,26,07,26,18.80
2018,07,26,07,27,18.90
2018,07,26,07,28,18.90
2018,07,26,07,29,19.00
2018,07,26,07,30,19.10
2018,07,26,07,31,19.10
2018,07,26,07,32,19.20
2018,07,26,07,33,19.20
2018,07,26,07,34,19.30
2018,07,26,07,35,19.30
2018,07,26,07,36,19.30
2018,07,26,07,37,19.40
2018,07,26,07,38,19.40
2018,07,26,07,39,19.40
2018,07,26,07,40,19.40
2018,07,26,07,41,19.50
2018,07,26,07,42,19.50
2018,07,26,07,43,19.60
2018,07,26,07,44,19.60
2018,07,26,07,45,19.70
2018,07,26,07,46,19.70
2018,07,26,07,47,19.70
2018,07,26,07,48,19.80
2018,07,26,07,49,19.80
2018,07,26,07,50,19.90
2018,07,26,07,51,19.90
2018,07,26,07,52,19.90
2018,07,26,07,53,20.00
2018,07,26,07,54,20.00
2018,07,26,07,55,20.00
2018,07,26,07,56,20.10
2018,07,26,07,57,20.10
2018,07,26,07,58,20.20
2018,07,26,07,59,20.30
2018,07,26,08,00,20.30
2018,07,26,08,01,20.40
2018,07,26,08,02,20.40
2018,07,26,08,03,20.50
2018,07,26,08,04,20.60
2018,07,26,08,05,20.60
2018,07,26,08,06,20.70
2018,07,26,08,07,20.80
2018,07,26,08,08,20.90
2018,07,26,08,09,21.00
2018,07,26,08,10,21.00
2018,07,26,08,11,21.10
2018,07,26,08,12,21.20
2018,07,26,08,13,21.30
2018,07,26,08,14,21.40
2018,07,26,08,15,21.40
2018,07,26,08,16,21.50
2018,07,26,08,17,21.60
2018,07,26,08,18,21.60
2018,07,26,08,19,21.70
2018,07,26,08,20,21.80
2018,07,26,08,21,21.80
2018,07,26,08,22,21.90
2018,07,26,08,23,21.90
2018,07,26,08,24,22.00
2018,07,26,08,25,22.10
2018,07,26,08,26,22.10
2018,07,26,08,27,22.20
2018,07,26,08,28,22.20
2018,07,26,08,29,22.30
2018,07,26,08,30,22.30
2018,07,26,08,31,22.40
2018,07,26,08,32,22.40
2018,07,26,08,33,22.50
2018,07,26,08,34,22.50
2018,07,26,08,35,22.50
2018,07,26,08,36,22.60
2018,07,26,08,37,22.60
2018,07,26,08,38,22.60
2018,07,26,08,39,22.70
2018,07,26,08,40,22.70
2018,07,26,08,41,22.60
2018,07,26,08,42,22.50
2018,07,26,08,43,22.50
2018,07,26,08,44,22.40
2018,07,26,08,45,22.30
2018,07,26,08,46,22.20
2018,07,26,08,47,22.20
2018,07,26,08,48,22.10
2018,07,26,08,49,22.00
2018,07,26,08,50,22.00
2018,07,26,08,51,22.00
2018,07,26,08,52,21.90
2018,07,26,08,53,21.90
2018,07,26,08,54,21.90
2018,07,26,08,55,21.90
2018,07,26,08,56,21.80
2018,07,26,08,57,21.80
2018,07,26,08,58,21.90
2018,07,26,08,59,21.90
2018,07,26,09,00,21.90
2018,07,26,09,01,22.00
2018,07,26,09,02,22.00
2018,07,26,09,03,22.10
2018,07,26,09,04,22.10
2018,07,26,09,05,22.20
2018,07,26,09,06,22.30
2018,07,26,09,07,22.30
2018,07,26,09,08,22.20
2018,07,26,09,09,22.20
2018,07,26,09,10,22.20
2018,07,26,09,11,22.20
2018,07,26,09,12,22.20
2018,07,26,09,13,22.20
2018,07,26,09,14,22.20
2018,07,26,09,15,22.20
2018,07,26,09,16,22.20
2018,07,26,09,17,22.30
2018,07,26,09,18,22.40
2018,07,26,09,19,22.50
2018,07,26,09,20,22.60
2018,07,26,09,21,22.70
2018,07,26,09,22,22.70
2018,07,26,09,23,22.80
2018,07,26,09,24,22.70
2018,07,26,09,25,22.70
2018,07,26,09,26,22.60
2018,07,26,09,27,22.60
2018,07,26,09,28,22.60
2018,07,26,09,29,22.50
2018,07,26,09,30,22.50
2018,07,26,09,31,22.40
2018,07,26,09,32,22.40
2018,07,26,09,33,22.40
2018,07,26,09,34,22.40
2018,07,26,09,35,22.40
2018,07,26,09,36,22.40
2018,07,26,09,37,22.40
2018,07,26,09,38,22.40
2018,07,26,09,39,22.40
2018,07,26,09,40,22.30
2018,07,26,09,41,22.30
2018,07,26,09,42,22.30
2018,07,26,09,43,22.40
2018,07,26,09,44,22.40
2018,07,26,09,45,22.50
2018,07,26,09,46,22.50
2018,07,26,09,47,22.60
2018,07,26,09,48,22.60
2018,07,26,09,49,22.60
2018,07,26,09,50,22.60
2018,07,26,09,51,22.70
2018,07,26,09,52,22.80
2018,07,26,09,53,22.80
2018,07,26,09,54,22.90
2018,07,26,09,55,23.00
2018,07,26,09,56,23.10
2018,07,26,09,57,23.10
2018,07,26,09,58,23.10
2018,07,26,09,59,23.10
2018,07,26,10,00,23.20
2018,07,26,10,01,23.20
2018,07,26,10,02,23.20
2018,07,26,10,03,23.30
2018,07,26,10,04,23.40
2018,07,26,10,05,23.50
2018,07,26,10,06,23.60
2018,07,26,10,07,23.60
2018,07,26,10,08,23.70
2018,07,26,10,09,23.70
2018,07,26,10,10,23.70
2018,07,26,10,11,23.80
2018,07,26,10,12,23.80
2018,07,26,10,13,23.90
2018,07,26,10,14,23.90
2018,07,26,10,15,23.90
2018,07,26,10,16,24.00
2018,07,26,10,17,24.00
2018,07,26,10,18,23.90
2018,07,26,10,19,23.70
2018,07,26,10,20,23.60
2018,07,26,10,21,23.50
2018,07,26,10,22,23.40
2018,07,26,10,23,23.30
2018,07,26,10,24,23.30
2018,07,26,10,25,23.40
2018,07,26,10,26,23.40
2018,07,26,10,27,23.40
2018,07,26,10,28,23.40
2018,07,26,10,29,23.40
2018,07,26,10,30,23.30
2018,07,26,10,31,23.20
2018,07,26,10,32,23.20
2018,07,26,10,33,23.10
2018,07,26,10,34,23.00
2018,07,26,10,35,23.00
2018,07,26,10,36,22.90
2018,07,26,10,37,22.90
2018,07,26,10,38,22.90
2018,07,26,10,39,23.00
2018,07,26,10,40,23.00
2018,07,26,10,41,23.10
2018,07,26,10,42,23.10
2018,07,26,10,43,23.10
2018,07,26,10,44,23.10
2018,07,26,10,45,23.10
2018,07,26,10,46,23.00
2018,07,26,10,47,23.00
2018,07,26,10,48,23.00
2018,07,26,10,49,23.10
2018,07,26,10,50,23.10
2018,07,26,10,51,23.10
2018,07,26,10,52,23.10
2018,07,26,10,53,23.20
2018,07,26,10,54,23.30
2018,07,26,10,55,23.30
2018,07,26,10,56,23.40
2018,07,26,10,57,23.40
2018,07,26,10,58,23.50
2018,07,26,10,59,23.50
2018,07,26,11,00,23.60
2018,07,26,11,01,23.60
2018,07,26,11,02,23.60
2018,07,26,11,03,23.70
2018,07,26,11,04,23.80
2018,07,26,11,05,23.80
2018,07,26,11,06,23.80
2018,07,26,11,07,23.80
2018,07,26,11,08,23.90
2018,07,26,11,09,23.90
2018,07,26,11,10,23.90
2018,07,26,11,11,23.90
2018,07,26,11,12,24.00
2018,07,26,11,13,24.00
2018,07,26,11,14,24.00
2018,07,26,11,15,24.00
2018,07,26,11,16,23.80
2018,07,26,11,17,23.80
2018,07,26,11,18,23.70
2018,07,26,11,19,23.70
2018,07,26,11,20,23.70
2018,07,26,11,21,23.70
2018,07,26,11,22,23.70
2018,07,26,11,23,23.70
2018,07,26,11,24,23.70
2018,07,26,11,25,23.60
2018,07,26,11,26,23.50
2018,07,26,11,27,23.40
2018,07,26,11,28,23.50
2018,07,26,11,29,23.50
2018,07,26,11,30,23.60
2018,07,26,11,31,23.60
2018,07,26,11,32,23.70
2018,07,26,11,33,23.80
2018,07,26,11,34,23.80
2018,07,26,11,35,23.80
2018,07,26,11,36,23.90
2018,07,26,11,37,23.90
2018,07,26,11,38,23.80
2018,07,26,11,39,23.80
2018,07,26,11,40,23.80
2018,07,26,11,41,23.70
2018,07,26,11,42,23.70
2018,07,26,11,43,23.60
2018,07,26,11,44,23.60
2018,07,26,11,45,23.50
2018,07,26,11,46,23.50
2018,07,26,11,47,23.50
2018,07,26,11,48,23.50
2018,07,26,11,49,23.60
2018,07,26,11,50,23.50
2018,07,26,11,51,23.50
2018,07,26,11,52,23.40
2018,07,26,11,53,23.30
2018,07,26,11,54,23.20
2018,07,26,11,55,23.20
2018,07,26,11,56,23.20
2018,07,26,11,57,23.20
2018,07,26,11,58,23.30
2018,07,26,11,59,23.30
2018,07,26,12,00,23.30
2018,07,26,12,01,23.40
2018,07,26,12,02,23.40
2018,07,26,12,03,23.50
2018,07,26,12,04,23.50
2018,07,26,12,05,23.60
2018,07,26,12,06,23.60
2018,07,26,12,07,23.70
2018,07,26,12,08,23.90
2018,07,26,12,09,23.90
2018,07,26,12,10,23.80
2018,07,26,12,11,23.80
2018,07,26,12,12,23.70
2018,07,26,12,13,23.60
2018,07,26,12,14,23.60
2018,07,26,12,15,23.60
2018,07,26,12,16,23.50
2018,07,26,12,17,23.50
2018,07,26,12,18,23.60
2018,07,26,12,19,23.60
2018,07,26,12,20,23.60
2018,07,26,12,21,23.60
2018,07,26,12,22,23.60
2018,07,26,12,23,23.50
2018,07,26,12,24,23.50
2018,07,26,12,25,23.50
2018,07,26,12,26,23.50
2018,07,26,12,27,23.50
2018,07,26,12,28,23.50
2018,07,26,12,29,23.60
2018,07,26,12,30,23.70
2018,07,26,12,31,23.70
2018,07,26,12,32,23.70
2018,07,26,12,33,23.80
2018,07,26,12,34,23.70
2018,07,26,12,35,23.70
2018,07,26,12,36,23.80
2018,07,26,12,37,23.80
2018,07,26,12,38,23.80
2018,07,26,12,39,23.90
2018,07,26,12,40,23.90
2018,07,26,12,41,24.00
2018,07,26,12,42,24.10
2018,07,26,12,43,24.10
2018,07,26,12,44,24.10
2018,07,26,12,45,24.10
2018,07,26,12,46,24.10
2018,07,26,12,47,24.10
2018,07,26,12,48,24.10
2018,07,26,12,49,24.10
2018,07,26,12,50,24.20
2018,07,26,12,51,24.20
2018,07,26,12,52,24.30
2018,07,26,12,53,24.30
2018,07,26,12,54,24.20
2018,07,26,12,55,24.20
2018,07,26,12,56,24.20
2018,07,26,12,57,24.20
2018,07,26,12,58,24.30
2018,07,26,12,59,24.40
2018,07,26,13,00,24.60
2018,07,26,13,01,24.80
2018,07,26,13,02,25.00
2018,07,26,13,03,25.20
2018,07,26,13,04,25.30
2018,07,26,13,05,25.40
2018,07,26,13,06,25.50
2018,07,26,13,07,25.60
2018,07,26,13,08,25.70
2018,07,26,13,09,25.80
2018,07,26,13,10,25.90
2018,07,26,13,11,25.90
2018,07,26,13,12,26.00
2018,07,26,13,13,26.10
2018,07,26,13,14,26.20
2018,07,26,13,15,26.20
2018,07,26,13,16,26.20
2018,07,26,13,17,26.20
2018,07,26,13,18,26.20
2018,07,26,13,19,26.20
2018,07,26,13,20,26.20
2018,07,26,13,21,26.20
2018,07,26,13,22,26.20
2018,07,26,13,23,26.30
2018,07,26,13,24,26.20
2018,07,26,13,25,26.10
2018,07,26,13,26,26.00
2018,07,26,13,27,25.90
2018,07,26,13,28,25.80
2018,07,26,13,29,25.80
2018,07,26,13,30,25.80
2018,07,26,13,31,25.90
2018,07,26,13,32,25.90
2018,07,26,13,33,25.90
2018,07,26,13,34,25.80
2018,07,26,13,35,25.70
2018,07,26,13,36,25.70
2018,07,26,13,37,25.60
2018,07,26,13,38,25.60
2018,07,26,13,39,25.50
2018,07,26,13,40,25.40
2018,07,26,13,41,25.40
2018,07,26,13,42,25.40
2018,07,26,13,43,25.50
2018,07,26,13,44,25.60
2018,07,26,13,45,25.60
2018,07,26,13,46,25.70
2018,07,26,13,47,25.70
2018,07,26,13,48,25.70
2018,07,26,13,49,25.70
2018,07,26,13,50,25.60
2018,07,26,13,51,25.60
2018,07,26,13,52,25.60
2018,07,26,13,53,25.60
2018,07,26,13,54,25.60
2018,07,26,13,55,25.60
2018,07,26,13,56,25.60
2018,07,26,13,57,25.60
2018,07,26,13,58,25.50
2018,07,26,13,59,25.40
2018,07,26,14,00,25.30
2018,07,26,14,01,25.30
2018,07,26,14,02,25.20
2018,07,26,14,03,25.20
2018,07,26,14,04,25.20
2018,07,26,14,05,25.20
2018,07,26,14,06,25.20
2018,07,26,14,07,25.20
2018,07,26,14,08,25.20
2018,07,26,14,09,25.20
2018,07,26,14,10,25.20
2018,07,26,14,11,25.20
2018,07,26,14,12,25.20
2018,07,26,14,13,25.30
2018,07,26,14,14,25.30
2018,07,26,14,15,25.20
2018,07,26,14,16,25.20
2018,07,26,14,17,25.20
2018,07,26,14,18,25.20
2018,07,26,14,19,25.20
2018,07,26,14,20,25.20
2018,07,26,14,21,25.20
2018,07,26,14,22,25.20
2018,07,26,14,23,25.20
2018,07,26,14,24,25.30
2018,07,26,14,25,25.30
2018,07,26,14,26,25.30
2018,07,26,14,27,25.30
2018,07,26,14,28,25.30
2018,07,26,14,29,25.30
2018,07,26,14,30,25.40
2018,07,26,14,31,25.40
2018,07,26,14,32,25.40
2018,07,26,14,33,25.40
2018,07,26,14,34,25.40
2018,07,26,14,35,25.40
2018,07,26,14,36,25.40
2018,07,26,14,37,25.40
2018,07,26,14,38,25.40
2018,07,26,14,39,25.40
2018,07,26,14,40,25.40
2018,07,26,14,41,25.40
2018,07,26,14,42,25.40
2018,07,26,14,43,25.40
2018,07,26,14,44,25.40
2018,07,26,14,45,25.40
2018,07,26,14,46,25.40
2018,07,26,14,47,25.40
2018,07,26,14,48,25.40
2018,07,26,14,49,25.40
2018,07,26,14,50,25.40
2018,07,26,14,51,25.50
2018,07,26,14,52,25.50
2018,07,26,14,53,25.50
2018,07,26,14,54,25.50
2018,07,26,14,55,25.60
2018,07,26,14,56,25.60
2018,07,26,14,57,25.70
2018,07,26,14,58,25.60
2018,07,26,14,59,25.60
2018,07,26,15,00,25.60
2018,07,26,15,01,25.70
2018,07,26,15,02,25.70
2018,07,26,15,03,25.70
2018,07,26,15,04,25.80
2018,07,26,15,05,25.80
2018,07,26,15,06,25.90
2018,07,26,15,07,26.00
2018,07,26,15,08,26.10
2018,07,26,15,09,26.10
2018,07,26,15,10,26.10
2018,07,26,15,11,26.10
2018,07,26,15,12,26.20
2018,07,26,15,13,26.20
2018,07,26,15,14,26.20
2018,07,26,15,15,26.20
2018,07,26,15,16,26.20
2018,07,26,15,17,26.20
2018,07,26,15,18,26.20
2018,07,26,15,19,26.20
2018,07,26,15,20,26.20
2018,07,26,15,21,26.20
2018,07,26,15,22,26.20
2018,07,26,15,23,26.20
2018,07,26,15,24,26.20
2018,07,26,15,25,26.20
2018,07,26,15,26,26.30
2018,07,26,15,27,26.40
2018,07,26,15,28,26.40
2018,07,26,15,29,26.50
2018,07,26,15,30,26.50
2018,07,26,15,31,26.60
2018,07,26,15,32,26.60
2018,07,26,15,33,26.50
2018,07,26,15,34,26.50
2018,07,26,15,35,26.50
2018,07,26,15,36,26.50
2018,07,26,15,37,26.50
2018,07,26,15,38,26.50
2018,07,26,15,39,26.50
2018,07,26,15,40,26.40
2018,07,26,15,41,26.40
2018,07,26,15,42,26.50
2018,07,26,15,43,26.50
2018,07,26,15,44,26.50
2018,07,26,15,45,26.40
2018,07,26,15,46,26.40
2018,07,26,15,47,26.40
2018,07,26,15,48,26.30
2018,07,26,15,49,26.40
2018,07,26,15,50,26.40
2018,07,26,15,51,26.40
2018,07,26,15,52,26.50
2018,07,26,15,53,26.50
2018,07,26,15,54,26.40
2018,07,26,15,55,26.40
2018,07,26,15,56,26.40
2018,07,26,15,57,26.40
2018,07,26,15,58,26.40
2018,07,26,15,59,26.40
2018,07,26,16,00,26.40
2018,07,26,16,01,26.40
2018,07,26,16,02,26.50
2018,07,26,16,03,26.50
2018,07,26,16,04,26.60
2018,07,26,16,05,26.60
2018,07,26,16,06,26.60
2018,07,26,16,07,26.60
2018,07,26,16,08,26.60
2018,07,26,16,09,26.60
2018,07,26,16,10,26.70
2018,07,26,16,11,26.80
2018,07,26,16,12,26.80
2018,07,26,16,13,26.90
2018,07,26,16,14,27.00
2018,07,26,16,15,27.10
2018,07,26,16,16,27.30
2018,07,26,16,17,27.30
2018,07,26,16,18,27.40
2018,07,26,16,19,27.40
2018,07,26,16,20,27.50
2018,07,26,16,21,27.50
2018,07,26,16,22,27.60
2018,07,26,16,23,27.60
2018,07,26,16,24,27.70
2018,07,26,16,25,27.80
2018,07,26,16,26,27.80
2018,07,26,16,27,27.80
2018,07,26,16,28,27.80
2018,07,26,16,29,27.90
2018,07,26,16,30,27.90
2018,07,26,16,31,27.90
2018,07,26,16,32,27.90
2018,07,26,16,33,27.90
2018,07,26,16,34,27.90
2018,07,26,16,35,27.90
2018,07,26,16,36,27.80
2018,07,26,16,37,27.80
2018,07,26,16,38,27.80
2018,07,26,16,39,27.80
2018,07,26,16,40,27.80
2018,07,26,16,41,27.80
2018,07,26,16,42,27.80
2018,07,26,16,43,27.80
2018,07,26,16,44,27.80
2018,07,26,16,45,27.80
2018,07,26,16,46,27.80
2018,07,26,16,47,27.80
2018,07,26,16,48,27.80
2018,07,26,16,49,27.90
2018,07,26,16,50,27.90
2018,07,26,16,51,28.00
2018,07,26,16,52,28.00
2018,07,26,16,53,28.00
2018,07,26,16,54,27.90
2018,07,26,16,55,27.90
2018,07,26,16,56,27.80
2018,07,26,16,57,27.80
2018,07,26,16,58,27.80
2018,07,26,16,59,27.70
2018,07,26,17,00,27.70
2018,07,26,17,01,27.70
2018,07,26,17,02,27.70
2018,07,26,17,03,27.70
2018,07,26,17,04,27.70
2018,07,26,17,05,27.70
2018,07,26,17,06,27.70
2018,07,26,17,07,27.70
2018,07,26,17,08,27.70
2018,07,26,17,09,27.70
2018,07,26,17,10,27.60
2018,07,26,17,11,27.60
2018,07,26,17,12,27.60
2018,07,26,17,13,27.60
2018,07,26,17,14,27.60
2018,07,26,17,15,27.60
2018,07,26,17,16,27.60
2018,07,26,17,17,27.60
2018,07,26,17,18,27.50
2018,07,26,17,19,27.50
2018,07,26,17,20,27.50
2018,07,26,17,21,27.40
2018,07,26,17,22,27.40